Location: Limerick
(52.6800°N, 8.6400°W)
Time: 06:32:24
(UTC+01:00)

Amateur Radio Satellites - All Passes

Search period start: 18 April 2014 06:02
Search period end: 19 April 2014 06:02
Location: Limerick, 52.6800°N, 8.6400°W

Satellite Date Start Highest point End Downlink Frequencies (MHz)
Time Altitude Azimuth
Gurwin Techsat 1B 18 Apr 06:03:16 06:08:02 35° 298° (WNW) 06:12:48 435.225 FM
AO-7 18 Apr 06:04:20 06:12:31 56° 103° (ESE) 06:20:39 29.400 - 29.500 MHz
AO-27 18 Apr 06:23:03 06:25:03 12° 314° (NW) 06:27:02 436.795 MHz FM
STRAND 1 18 Apr 06:27:55 06:32:44 43° 65° (ENE) 06:37:34 ?
ITAMSAT 1 18 Apr 06:35:09 06:36:04 10° 316° (NW) 06:36:59 435.822 SSB
MaSat-1 18 Apr 06:36:44 06:38:45 19° 46° (NE) 06:40:57 437.345 MHz
Sapphire 18 Apr 06:37:36 06:41:14 18° 359° (N) 06:44:53 437.095 MHz 1200 baud AX-25 AFSK
TMSAT-1 18 Apr 06:53:12 06:57:07 22° 305° (NW) 07:01:02 436.925 FM
KITSAT 1 18 Apr 07:03:34 07:11:14 43° 334° (NNW) 07:18:55 435.175 FM
Uosat F 18 Apr 07:14:32 07:18:47 28° 301° (WNW) 07:23:01 435.120 FM
JAS-2 18 Apr 07:17:50 07:20:24 13° 85° (E) 07:23:03 435.800 - 435.900 CW/SSB, 435.910 FM
JAS-1B 18 Apr 07:18:16 07:23:18 31° 303° (WNW) 07:28:12 435.800 - 435.900 CW/SSB
PCSat 18 Apr 07:23:28 07:27:20 19° 11° (NNE) 07:31:11 145.825 MHz
RS-15 18 Apr 07:33:48 07:43:50 40° 111° (ESE) 07:53:36 29.354 - 29.394 USB, Beacon 29.352 USB
Hamsat 18 Apr 07:55:01 07:59:21 67° 102° (ESE) 08:03:41 145.90 MHz
AO-7 18 Apr 07:57:26 08:05:15 48° 305° (NW) 08:13:04 29.400 - 29.500 MHz
STRAND 1 18 Apr 08:07:25 08:12:04 34° 264° (W) 08:16:43 ?
MaSat-1 18 Apr 08:14:43 08:17:16 34° 242° (WSW) 08:20:10 437.345 MHz
Sapphire 18 Apr 08:22:02 08:26:32 25° 25° (NNE) 08:31:00 437.095 MHz 1200 baud AX-25 AFSK
AO-40 18 Apr 08:27:09 10:40:21 16° 143° (SE) 11:57:25 Beacon 2401.320
Oscar 10/S400 18 Apr 08:32:31 09:26:24 53° 175° (S) 17:34:56 145.825 - 145.975 CW/USB, Beacon 145.810 USB
SO-67 18 Apr 08:54:03 08:57:33 60° 101° (E) 09:01:01 435.3500 MHz FM
JAS-2 18 Apr 09:01:09 09:06:25 78° 105° (ESE) 09:12:04 435.800 - 435.900 CW/SSB, 435.910 FM
KITSAT 1 18 Apr 09:01:41 09:08:49 32° 2° (N) 09:15:56 435.175 FM
PCSat 18 Apr 09:07:10 09:12:15 38° 36° (NE) 09:17:19 145.825 MHz
Hamsat 18 Apr 09:31:50 09:34:56 20° 301° (WNW) 09:38:03 145.90 MHz
RS-15 18 Apr 09:44:08 09:55:22 81° 317° (NW) 10:06:23 29.354 - 29.394 USB, Beacon 29.352 USB
AO-7 18 Apr 09:51:00 09:56:12 19° 329° (NNW) 10:01:24 29.400 - 29.500 MHz
Sapphire 18 Apr 10:05:25 10:10:52 72° 48° (NE) 10:16:17 437.095 MHz 1200 baud AX-25 AFSK
HO-68 18 Apr 10:23:35 10:30:22 43° 98° (E) 10:37:07 435.675 MHz FM
SO-67 18 Apr 10:28:16 10:30:19 15° 300° (WNW) 10:32:22 435.3500 MHz FM
JAS-2 18 Apr 10:47:13 10:51:06 22° 305° (NW) 10:55:08 435.800 - 435.900 CW/SSB, 435.910 FM
FUNcube-1 18 Apr 10:48:53 10:49:39 10° 85° (E) 10:50:26 145.950 - 145.970 MHz USB
PCSat 18 Apr 10:50:38 10:55:58 59° 238° (WSW) 11:01:17 145.825 MHz
KITSAT 1 18 Apr 10:58:28 11:06:17 47° 31° (NNE) 11:14:02 435.175 FM
Oscar 11 18 Apr 11:01:10 11:05:13 36° 97° (E) 11:09:15 145.825 FM, Beacon 2401.500 USB
AO-7 18 Apr 11:43:48 11:45:48 11° 357° (N) 11:47:47 29.400 - 29.500 MHz
Sapphire 18 Apr 11:49:27 11:53:52 26° 249° (WSW) 11:58:15 437.095 MHz 1200 baud AX-25 AFSK
RS-15 18 Apr 11:58:48 12:09:22 47° 347° (NNW) 12:19:50 29.354 - 29.394 USB, Beacon 29.352 USB
HO-68 18 Apr 12:11:21 12:18:16 53° 299° (WNW) 12:25:11 435.675 MHz FM
FUNcube-1 18 Apr 12:22:35 12:26:50 78° 104° (ESE) 12:31:07 145.950 - 145.970 MHz USB
Saudisat 1A 18 Apr 12:33:08 12:37:16 37° 122° (ESE) 12:41:24 436.775 MHz
PCSat 18 Apr 12:36:38 12:38:18 11° 258° (WSW) 12:39:57 145.825 MHz
Oscar 11 18 Apr 12:37:31 12:41:23 32° 296° (WNW) 12:45:15 145.825 FM, Beacon 2401.500 USB
AO-27 18 Apr 12:49:30 12:52:41 17° 51° (NE) 12:55:53 436.795 MHz FM
KITSAT 1 18 Apr 12:54:09 13:02:15 73° 236° (SW) 13:10:16 435.175 FM
ITAMSAT 1 18 Apr 13:00:06 13:03:40 19° 53° (NE) 13:07:15 435.822 SSB
Oscar 19 18 Apr 13:07:01 13:11:33 32° 61° (ENE) 13:16:06 437.125 CW, 437.150 USB
Oscar 16 18 Apr 13:14:46 13:19:29 38° 63° (ENE) 13:24:15 437.025 USB, Beacon 2401.1428
AO-Echo 18 Apr 13:21:38 13:25:31 22° 56° (ENE) 13:29:20 ?
AO-7 18 Apr 13:30:50 13:35:14 16° 25° (NNE) 13:39:38 29.400 - 29.500 MHz
Uribyol 2 18 Apr 13:47:15 13:52:03 40° 64° (ENE) 13:56:52 436.500 FM
FUNcube-1 18 Apr 14:00:07 14:02:47 17° 303° (WNW) 14:05:28 145.950 - 145.970 MHz USB
HO-68 18 Apr 14:00:11 14:04:32 18° 322° (NW) 14:08:54 435.675 MHz FM
Gurwin Techsat 1B 18 Apr 14:11:47 14:16:02 25° 57° (ENE) 14:20:17 435.225 FM
Saudisat 1A 18 Apr 14:12:30 14:16:50 47° 323° (NW) 14:21:10 436.775 MHz
RS-15 18 Apr 14:13:44 14:24:21 51° 20° (NNE) 14:35:01 29.354 - 29.394 USB, Beacon 29.352 USB
AO-27 18 Apr 14:26:15 14:31:26 76° 71° (ENE) 14:36:39 436.795 MHz FM
JAS-1B 18 Apr 14:29:33 14:35:01 23° 52° (NE) 14:39:55 435.800 - 435.900 CW/SSB
ITAMSAT 1 18 Apr 14:37:20 14:42:32 89° 73° (ENE) 14:47:46 435.822 SSB
Oscar 19 18 Apr 14:45:46 14:50:45 49° 261° (W) 14:55:47 437.125 CW, 437.150 USB
KITSAT 1 18 Apr 14:50:51 14:56:19 20° 258° (WSW) 15:01:46 435.175 FM
Oscar 16 18 Apr 14:54:03 14:58:52 40° 263° (W) 15:03:44 437.025 USB, Beacon 2401.1428
AO-Echo 18 Apr 14:58:34 15:03:49 78° 256° (WSW) 15:08:57 ?
TMSAT-1 18 Apr 15:00:00 15:04:55 40° 64° (ENE) 15:09:51 436.925 FM
Uosat F 18 Apr 15:17:04 15:21:10 26° 58° (ENE) 15:25:15 435.120 FM
AO-7 18 Apr 15:18:26 15:25:49 38° 50° (NE) 15:33:13 29.400 - 29.500 MHz
Uribyol 2 18 Apr 15:26:49 15:31:36 37° 263° (W) 15:36:25 436.500 FM
Gurwin Techsat 1B 18 Apr 15:50:18 15:55:35 69° 257° (WSW) 16:00:55 435.225 FM
Saudisat 1A 18 Apr 15:54:05 15:57:26 20° 346° (NNW) 16:00:48 436.775 MHz
OPAL 18 Apr 15:56:37 16:01:23 35° 98° (E) 16:06:08 ?
AO-27 18 Apr 16:07:49 16:11:33 20° 271° (W) 16:15:19 436.795 MHz FM
JAS-1B 18 Apr 16:17:10 16:25:03 84° 71° (ENE) 16:31:38 435.800 - 435.900 CW/SSB
ITAMSAT 1 18 Apr 16:19:33 16:22:47 17° 273° (W) 16:26:02 435.822 SSB
RS-15 18 Apr 16:26:51 16:37:50 86° 230° (SW) 16:49:00 29.354 - 29.394 USB, Beacon 29.352 USB
SO-50 18 Apr 16:33:46 16:37:24 25° 117° (ESE) 16:41:04 436.795 FM
TMSAT-1 18 Apr 16:39:58 16:44:54 39° 264° (W) 16:49:51 436.925 FM
AO-Echo 18 Apr 16:40:47 16:43:25 14° 275° (W) 16:46:01 ?
Uosat F 18 Apr 16:54:39 16:59:38 61° 258° (WSW) 17:04:38 435.120 FM
ISS 18 Apr 17:00:35 17:02:51 17° 144° (SE) 17:05:09 145.800 FM
AO-7 18 Apr 17:09:53 17:18:09 73° 253° (WSW) 17:26:29 29.400 - 29.500 MHz
Hamsat 18 Apr 17:20:28 17:23:00 16° 56° (ENE) 17:25:34 145.90 MHz
Gurwin Techsat 1B 18 Apr 17:34:30 17:36:36 12° 277° (W) 17:38:42 435.225 FM
Saudisat 1A 18 Apr 17:35:17 17:38:31 19° 11° (N) 17:41:45 436.775 MHz
OPAL 18 Apr 17:35:27 17:40:24 45° 298° (WNW) 17:45:21 ?
JAS-2 18 Apr 17:38:06 17:40:55 14° 49° (NE) 17:43:39 435.800 - 435.900 CW/SSB, 435.910 FM
JAS-1B 18 Apr 18:10:13 18:16:18 24° 269° (W) 18:21:42 435.800 - 435.900 CW/SSB
SO-50 18 Apr 18:13:09 18:17:37 66° 318° (NW) 18:22:10 436.795 FM
ISS 18 Apr 18:35:50 18:39:06 52° 163° (SSE) 18:42:24 145.800 FM
Uosat F 18 Apr 18:39:14 18:39:29 10° 278° (W) 18:39:44 435.120 FM
RS-15 18 Apr 18:39:55 18:48:45 30° 255° (WSW) 18:57:47 29.354 - 29.394 USB, Beacon 29.352 USB
Hamsat 18 Apr 18:54:14 18:58:27 83° 256° (WSW) 19:02:44 145.90 MHz
UOSAT-12 18 Apr 19:03:08 19:07:23 38° 122° (ESE) 19:11:43 437.025 FM, 437.400 FM
AO-7 18 Apr 19:06:55 19:12:28 19° 275° (W) 19:18:04 29.400 - 29.500 MHz
HO-68 18 Apr 19:14:02 19:18:41 19° 40° (NE) 19:23:21 435.675 MHz FM
Saudisat 1A 18 Apr 19:15:01 19:19:14 40° 34° (NE) 19:23:24 436.775 MHz
OPAL 18 Apr 19:16:29 19:18:08 12° 319° (NW) 19:19:47 ?
JAS-2 18 Apr 19:19:34 19:25:13 66° 70° (ENE) 19:30:27 435.800 - 435.900 CW/SSB, 435.910 FM
SO-67 18 Apr 19:33:21 19:36:46 52° 72° (ENE) 19:40:12 435.3500 MHz FM
SO-50 18 Apr 19:55:18 19:58:59 24° 341° (NNW) 20:02:42 436.795 FM
STRAND 1 18 Apr 20:11:16 20:16:16 52° 100° (E) 20:21:14 ?
ISS 18 Apr 20:12:23 20:15:45 76° 183° (S) 20:19:07 145.800 FM
Oscar 11 18 Apr 20:29:41 20:30:46 11° 51° (NE) 20:31:51 145.825 FM, Beacon 2401.500 USB
Hamsat 18 Apr 20:33:52 20:35:11 11° 276° (W) 20:36:31 145.90 MHz
UOSAT-12 18 Apr 20:43:00 20:47:30 48° 323° (NW) 20:52:05 437.025 FM, 437.400 FM
Saudisat 1A 18 Apr 20:54:42 20:58:57 46° 235° (SW) 21:03:09 436.775 MHz
HO-68 18 Apr 20:58:07 21:05:05 59° 63° (ENE) 21:12:06 435.675 MHz FM
JAS-2 18 Apr 21:06:23 21:10:49 23° 269° (W) 21:15:01 435.800 - 435.900 CW/SSB, 435.910 FM
SO-67 18 Apr 21:08:11 21:10:16 15° 271° (W) 21:12:21 435.3500 MHz FM
SO-50 18 Apr 21:37:45 21:41:01 19° 5° (N) 21:44:20 436.795 FM
ISS 18 Apr 21:49:08 21:52:20 40° 202° (SSW) 21:55:31 145.800 FM
FUNcube-1 18 Apr 21:50:16 21:53:15 19° 59° (ENE) 21:56:13 145.950 - 145.970 MHz USB
STRAND 1 18 Apr 21:50:53 21:55:16 30° 300° (WNW) 21:59:38 ?
Oscar 11 18 Apr 22:01:52 22:06:06 60° 71° (ENE) 22:10:24 145.825 FM, Beacon 2401.500 USB
MaSat-1 18 Apr 22:24:35 22:26:18 15° 113° (ESE) 22:27:55 437.345 MHz
UOSAT-12 18 Apr 22:25:03 22:28:41 22° 347° (NNW) 22:32:21 437.025 FM, 437.400 FM
HO-68 18 Apr 22:46:37 22:53:08 38° 264° (W) 22:59:44 435.675 MHz FM
SO-50 18 Apr 23:18:40 23:22:51 33° 29° (NNE) 23:27:05 436.795 FM
FUNcube-1 18 Apr 23:25:09 23:29:19 62° 258° (WSW) 23:33:28 145.950 - 145.970 MHz USB
ISS 18 Apr 23:27:06 23:28:25 12° 221° (SW) 23:29:44 145.800 FM
Oscar 11 18 Apr 23:39:37 23:42:43 19° 270° (W) 23:45:50 145.825 FM, Beacon 2401.500 USB
MaSat-1 19 Apr 00:02:09 00:04:34 30° 310° (NW) 00:06:51 437.345 MHz
UOSAT-12 19 Apr 00:06:46 00:10:21 21° 11° (N) 00:13:57 437.025 FM, 437.400 FM
Sapphire 19 Apr 00:55:10 00:58:40 18° 106° (ESE) 01:02:10 437.095 MHz 1200 baud AX-25 AFSK
SO-50 19 Apr 00:59:11 01:03:47 68° 231° (SW) 01:08:26 436.795 FM
PCSat 19 Apr 01:38:15 01:43:11 37° 116° (ESE) 01:48:09 145.825 MHz
OPAL 19 Apr 01:40:09 01:44:07 24° 53° (NE) 01:48:09 ?
UOSAT-12 19 Apr 01:47:06 01:51:38 43° 34° (NE) 01:56:08 437.025 FM, 437.400 FM
AO-27 19 Apr 02:34:16 02:37:41 17° 88° (E) 02:41:04 436.795 MHz FM
Sapphire 19 Apr 02:35:54 02:41:20 84° 127° (SE) 02:46:47 437.095 MHz 1200 baud AX-25 AFSK
SO-50 19 Apr 02:41:36 02:43:34 13° 250° (WSW) 02:45:32 436.795 FM
ITAMSAT 1 19 Apr 02:44:54 02:48:46 21° 90° (E) 02:52:36 435.822 SSB
Oscar 19 19 Apr 02:51:07 02:56:01 39° 97° (E) 03:00:52 437.125 CW, 437.150 USB
Oscar 16 19 Apr 02:59:11 03:04:14 48° 99° (E) 03:09:15 437.025 USB, Beacon 2401.1428
AO-Echo 19 Apr 03:00:40 03:04:24 22° 90° (E) 03:08:02 ?
OPAL 19 Apr 03:17:31 03:22:34 72° 253° (WSW) 03:27:43 ?
PCSat 19 Apr 03:21:12 03:26:30 53° 317° (NW) 03:31:50 145.825 MHz
UOSAT-12 19 Apr 03:27:21 03:31:53 47° 235° (SW) 03:36:23 437.025 FM, 437.400 FM
KITSAT 1 19 Apr 03:29:10 03:36:17 36° 111° (ESE) 03:43:26 435.175 FM
Uribyol 2 19 Apr 03:32:53 03:37:56 50° 100° (E) 03:42:58 436.500 FM
JAS-1B 19 Apr 03:57:43 03:59:52 12° 82° (E) 04:02:01 435.800 - 435.900 CW/SSB
Gurwin Techsat 1B 19 Apr 04:00:38 04:05:22 32° 94° (E) 04:10:04 435.225 FM
AO-27 19 Apr 04:12:41 04:17:54 85° 288° (WNW) 04:23:05 436.795 MHz FM
Sapphire 19 Apr 04:20:35 04:25:22 30° 329° (NNW) 04:30:10 437.095 MHz 1200 baud AX-25 AFSK
ITAMSAT 1 19 Apr 04:23:39 04:28:49 72° 289° (WNW) 04:33:58 435.822 SSB
Oscar 19 19 Apr 04:30:34 04:35:23 39° 297° (WNW) 04:40:11 437.125 CW, 437.150 USB
AO-Echo 19 Apr 04:38:50 04:43:38 61° 290° (WNW) 04:48:18 ?
Oscar 16 19 Apr 04:38:51 04:43:27 33° 299° (WNW) 04:48:03 437.025 USB, Beacon 2401.1428
TMSAT-1 19 Apr 04:49:08 04:54:21 55° 100° (E) 04:59:33 436.925 FM
Uosat F 19 Apr 04:56:39 05:00:53 27° 93° (E) 05:05:05 435.120 FM
OPAL 19 Apr 05:00:17 05:02:24 13° 274° (W) 05:04:33 ?
AO-7 19 Apr 05:04:59 05:11:53 28° 91° (E) 05:18:46 29.400 - 29.500 MHz
PCSat 19 Apr 05:06:57 05:11:07 22° 341° (NNW) 05:15:18 145.825 MHz
Uribyol 2 19 Apr 05:12:44 05:17:15 31° 300° (WNW) 05:21:46 436.500 FM
KITSAT 1 19 Apr 05:23:00 05:31:09 77° 314° (NW) 05:39:20 435.175 FM
Gurwin Techsat 1B 19 Apr 05:40:27 05:45:34 49° 294° (WNW) 05:50:39 435.225 FM
JAS-1B 19 Apr 05:46:05 05:51:52 72° 104° (ESE) 05:57:36 435.800 - 435.900 CW/SSB
AO-27 19 Apr 05:53:17 05:56:44 18° 308° (NW) 06:00:11 436.795 MHz FM
